Header for Extended Forecast Station List Page

Search by: ID | Name | Date | Parm | Value | Avg | % Avg
Sort by: ID | Name | Date | Parm | Value | Avg | % Avg

Enter search or view all records.

Click on id for station plot
#IDNameDateParmValueAvg% Avg
0LYDM8KOOTENAI-LIBBY DAM10-21-2021INFLOW (KAF)77892085
1LEOI1KOOTENAI-AT LEONIA10-21-2021DISCHARGE (KAF)2000265675
2BFEI1KOOTENAI-AT BONNERS FERRY10-21-2021STAGE (FT)MMM
3FCFM8NF FLATHEAD-NEAR COLUMBIA FALLS10-21-2021DISCHARGE (KAF)13118571
4WGCM8MF FLATHEAD-NEAR WEST GLACIER10-21-2021DISCHARGE (KAF)5316332
5HHWM8SF FLATHEAD-HUNGRY HORSE DAM10-21-2021INFLOW (KAF)14223161
6CFMM8FLATHEAD-AT COLUMBIA FALLS10-21-2021DISCHARGE (KAF)88393495
7DLGM8CLARK FORK-AT DEER LODGE10-21-2021DISCHARGE (KAF)495196
8DRMM8CLARK FORK-NR DRUMMOND10-21-2021DISCHARGE (KAF)11612593
9RCCM8ROCK CREEK-NEAR CLINTON10-21-2021DISCHARGE (KAF)464699
10BONM8BLACKFOOT-NEAR BONNER10-21-2021DISCHARGE (KAF)10513379
11ABOM8CLARK FORK-ABOVE MISSOULA10-21-2021DISCHARGE (KAF)28032586
12BITM8BITTERROOT-NEAR MISSOULA10-21-2021DISCHARGE (KAF)12320759
13BELM8CLARK FORK-BELOW MISSOULA10-21-2021DISCHARGE (KAF)40353975
14STRM8ST. REGIS-NEAR ST. REGIS10-21-2021DISCHARGE (KAF)173352
15SRGM8CLARK FORK-AT ST REGIS10-21-2021DISCHARGE (KAF)51170872
16KERM8FLATHEAD-SELI’Š KSANKA QLISPE’ DAM10-21-2021INFLOW (KAF)961132273
17NOXM8CLARK FORK-NOXON RAPIDS DAM10-21-2021INFLOW (KAF)2293306875
18CABI1CLARK FORK-CABINET GORGE DAM10-21-2021INFLOW (KAF)2516344073
19PRTI1PRIEST-NEAR PRIEST RIVER10-21-2021DISCHARGE (KAF)16524567
20ALFW1PEND OREILLE-ALBENI FALLS DAM10-21-2021INFLOW (KAF)2779383472
21HOPI1PEND OREILLE-PEND OREILLE LAKE NR HOPE10-21-2021LAKE ELEVATION (FT)MMM
22COEI1COEUR D ALENE-COEUR D ALENE LAKE10-21-2021INFLOW (KAF)34776245
23SPOW1SPOKANE-AT SPOKANE10-21-2021DISCHARGE (KAF)44395946
24LLKW1SPOKANE-AT LONGLAKE10-21-2021INFLOW (KAF)629115854
25SATI1ST MARIES-NEAR SANTA10-21-2021DISCHARGE (KAF)153939
26SJMI1ST JOE-AT ST MARIES10-21-2021STAGE (FT)MMM
27CIBW1COLUMBIA-AT INTL BOUNDARY10-21-2021DISCHARGE (KAF)177152022688
28LAUW1KETTLE-AT LAURIER10-21-2021DISCHARGE (KAF)9312177
29GCDW1COLUMBIA-GRAND COULEE DAM10-21-2021INFLOW (KAF)185152128287
30CHJW1COLUMBIA-CHIEF JOSEPH DAM10-21-2021INFLOW (KAF)205662295690
31TONW1OKANOGAN-NEAR TONASKET10-21-2021DISCHARGE (KAF)25129585
32PATW1METHOW-NEAR PATEROS10-21-2021DISCHARGE (KAF)8110477
33WELW1COLUMBIA-WELLS DAM10-21-2021INFLOW (KAF)208912355689
34CHDW1CHELAN-LAKE CHELAN DAM10-21-2021INFLOW (KAF)225192117
35RRHW1COLUMBIA-ROCKY REACH DAM10-21-2021INFLOW (KAF)212112394889
36ARDW1ENTIAT-NEAR ARDENVOIR10-21-2021DISCHARGE (KAF)2625104
37PESW1WENATCHEE-AT PESHASTIN10-21-2021DISCHARGE (KAF)30832695
38WANW1COLUMBIA-WANAPUM DAM10-21-2021INFLOW (KAF)215032459187
39PRWW1COLUMBIA-PRIEST RAPIDS DAM10-21-2021INFLOW (KAF)215032466387
40KEDW1YAKIMA-KEECHELUS LAKE10-21-2021INFLOW (KAF)535596
41KADW1KACHESS-KACHESS DAM10-21-2021INFLOW (KAF)5250104
42EASW1YAKIMA-AT EASTON10-21-2021DISCHARGE (KAF)677293
43CLUW1CLE ELUM-CLE ELUM LAKE10-21-2021INFLOW (KAF)134117114
44TNAW1TEANAWAY-BELOW FORKS10-21-2021DISCHARGE (KAF)264164
45UMTW1YAKIMA-AT UMTANUM10-21-2021DISCHARGE (KAF)22028078
46BUDW1BUMPING-BUMPING LAKE DAM10-21-2021INFLOW (KAF)3939100
47CLFW1NACHES-NEAR CLIFFDEL10-21-2021DISCHARGE (KAF)8811477
48RILW1TIETON-RIMROCK LAKE NEAR RIMROCK10-21-2021INFLOW (KAF)427159
49NACW1NACHES-NEAR NACHES10-21-2021DISCHARGE (KAF)6614645
50PARW1YAKIMA-NEAR PARKER10-21-2021DISCHARGE (KAF)40448583
51KIOW1YAKIMA-AT KIONA10-21-2021DISCHARGE (KAF)58170682
52IPDI1HENRYS FORK-ISLAND PARK DAM10-21-2021INFLOW (KAF)8210777
53CHEI1FALL RIVER-NEAR CHESTER10-21-2021DISCHARGE (KAF)10511889
54ANTI1HENRYS FORK-AT ST. ANTHONY10-21-2021DISCHARGE (KAF)31636985
55TEAI1TETON-NEAR ST. ANTHONY10-21-2021DISCHARGE (KAF)9010189
56REXI1HENRYS FORK-AT REXBURG10-21-2021DISCHARGE (KAF)39642693
57JLKW4SNAKE-JACKSON LAKE AT DAM10-21-2021INFLOW (KAF)8211273
58JKSW4SNAKE-NEAR JACKSON10-21-2021DISCHARGE (KAF)27632984
59ALPW4SNAKE-NEAR ALPINE10-21-2021DISCHARGE (KAF)33639884
60PLDI1SF SNAKE-PALISADES DAM10-21-2021INFLOW (KAF)52261085
61HEII1SNAKE-NEAR HEISE10-21-2021DISCHARGE (KAF)29540573
62RIDI1WILLOW CREEK-RIRIE DAM10-21-2021INFLOW (KAF)101186
63SIFI1SNAKE-AB EAGLE ROCK NR IDAHO FALLS10-21-2021DISCHARGE (KAF)52168676
64SHYI1SNAKE-NEAR SHELLEY10-21-2021DISCHARGE (KAF)52170474
65SNAI1SNAKE-AT BLACKFOOT10-21-2021DISCHARGE (KAF)43961072
66BFTI1SNAKE-NEAR BLACKFOOT10-21-2021DISCHARGE (KAF)45859976
67PIHI1PORTNEUF-AT POCATELLO10-21-2021DISCHARGE (KAF)374778
68AFRI1SNAKE-AMERICAN FALLS RESERVOIR10-21-2021INFLOW (KAF)1110119593
69MILI1SNAKE-AT MILNER10-21-2021DISCHARGE (KAF)M55M
70HOTI1BRUNEAU-NEAR HOT SPRINGS10-21-2021DISCHARGE (KAF)162468
71SWAI1SNAKE-BELOW SWAN FALLS10-21-2021DISCHARGE (KAF)1788185596
72HWRI1BIG LOST-AT HOWELL RANCH NEAR CHILLY10-21-2021DISCHARGE (KAF)122059
73MACI1BIG LOST-MACKAY RESERVOIR NEAR MACKAY10-21-2021INFLOW (KAF)214152
74HALI1BIG WOOD-AT HAILEY10-21-2021DISCHARGE (KAF)263867
75MAGI1BIG WOOD-MAGIC DAM10-21-2021INFLOW (KAF)122158
76LWRI1LITTLE WOOD-LITTLE WOOD DAM10-21-2021INFLOW (KAF)111390
77OWYO3OWYHEE-OWYHEE DAM10-21-2021INFLOW (KAF)688877
78ARAI1SF BOISE-ANDERSON RANCH DAM10-21-2021INFLOW (KAF)597084
79LUCI1BOISE-LUCKY PEAK DAM10-21-2021INFLOW (KAF)508261
80BIGI1BOISE-AT GLENWOOD BRIDGE10-21-2021DISCHARGE (KAF)536383
81PARI1BOISE-NEAR PARMA10-21-2021DISCHARGE (KAF)19820995
82WRMO3MALHEUR-WARM SPRINGS DAM10-21-2021INFLOW (KAF)172084
83BERO3MALHEUR-AGENCY VALLEY DAM10-21-2021INFLOW (KAF)101662
84BULO3BULLY CREEK-BULLY CREEK DAM10-21-2021INFLOW (KAF)162908
85CSDI1NF PAYETTE-CASCADE DAM10-21-2021INFLOW (KAF)9287106
86DEDI1DEADWOOD-NEAR LOWMAN10-21-2021INFLOW (KAF)131774
87EMMI1PAYETTE-NEAR EMMETT10-21-2021DISCHARGE (KAF)25627593
88WSRI1WEISER-NEAR WEISER10-21-2021DISCHARGE (KAF)518063
89WEII1SNAKE-AT WEISER10-21-2021DISCHARGE (KAF)2598272995
90BRNI1SNAKE-BROWNLEE DAM10-21-2021INFLOW (KAF)2800286898
91WHBI1SALMON-AT WHITEBIRD10-21-2021DISCHARGE (KAF)780102776
92TRYO3GRANDE RONDE-TROY10-21-2021DISCHARGE (KAF)23029777
93ANAW1SNAKE-NEAR ANATONE10-21-2021DISCHARGE (KAF)3624444082
94ORFI1CLEARWATER-AT OROFINO10-21-2021DISCHARGE (KAF)39270156
95DWRI1NF CLEARWATER-DWORSHAK DAM10-21-2021INFLOW (KAF)30655555
96SPDI1CLEARWATER-AT SPALDING10-21-2021DISCHARGE (KAF)838130564
97LGDW1SNAKE-LOWER GRANITE DAM10-21-2021INFLOW (KAF)4462580777
98LGSW1SNAKE-LITTLE GOOSE DAM10-21-2021INFLOW (KAF)4462584976
99LMNW1SNAKE-LOWER MONUMENTAL DAM10-21-2021INFLOW (KAF)4514589477
100IHDW1SNAKE-ICE HARBOR DAM10-21-2021INFLOW (KAF)4514592376
101TCHW1WALLA WALLA-NEAR TOUCHET10-21-2021DISCHARGE (KAF)10012282
102MCDW1COLUMBIA-MCNARY DAM10-21-2021INFLOW (KAF)266573165184
103GIBO3UMATILLA-NEAR GIBBON10-21-2021DISCHARGE (KAF)3534101
104PDTO3UMATILLA-AT PENDLETON10-21-2021DISCHARGE (KAF)9680121
105MYKO3MCKAY CREEK-NEAR PILOT ROCK10-21-2021DISCHARGE (KAF)2518135
106UMAO3UMATILLA-NEAR UMATILLA10-21-2021DISCHARGE (KAF)14289159
107MONO3NF JOHN DAY-AT MONUMENT10-21-2021DISCHARGE (KAF)929795
108SERO3JOHN DAY-AT SERVICE CK10-21-2021DISCHARGE (KAF)17517799
109JDAO3COLUMBIA-JOHN DAY DAM10-21-2021INFLOW (KAF)278963273285
110MODO3DESCHUTES-AT MOODY NR BIGGS10-21-2021DISCHARGE (KAF)13851332104
111TDAO3COLUMBIA-THE DALLES DAM10-21-2021INFLOW (KAF)286253343386
112PITW1KLICKITAT-NEAR PITT10-21-2021DISCHARGE (KAF)289284102
113HODO3HOOD-NEAR TUCKER BRIDGE10-21-2021DISCHARGE (KAF)250212118
114UNDW1WHITE SALMON-NEAR UNDERWOOD10-21-2021DISCHARGE (KAF)233230101
115BONO3COLUMBIA-BONNEVILLE DAM10-21-2021INFLOW (KAF)294403481785